This is the latest recevied weather packets stored in our database for station/object K8FJG-13. If no packets are shown the sender has not sent any weather packets the latest 10 day(s).
| Time | Temp. | Humidity | Pressure | Rain* | Wind** | Luminosity | Snow |
|---|---|---|---|---|---|---|---|
| 1777492471 | 7.78° C | 97% | 963.8 hPa | - | - | - | - |
| 1777491867 | 7.78° C | 97% | 963.8 hPa | - | - | - | - |
| 1777491264 | 7.78° C | 97% | 963.8 hPa | - | - | - | - |
| 1777490661 | 7.78° C | 97% | 963.9 hPa | - | - | - | - |
| 1777490058 | 8.33° C | 97% | 963.9 hPa | - | - | - | - |
| 1777489455 | 8.89° C | 97% | 963.7 hPa | - | - | - | - |
| 1777488852 | 8.89° C | 96% | 964 hPa | - | - | - | - |
| 1777488249 | 9.44° C | 96% | 963.9 hPa | - | - | - | - |
| 1777487645 | 10° C | 96% | 964.1 hPa | - | - | - | - |
| 1777487042 | 10.56° C | 96% | 964.1 hPa | - | - | - | - |
| 1777486439 | 10.56° C | 96% | 964 hPa | - | - | - | - |
| 1777485836 | 11.11° C | 96% | 963.9 hPa | - | - | - | - |
| 1777485233 | 11.11° C | 96% | 963.8 hPa | - | - | - | - |
| 1777484630 | 11.11° C | 96% | 963.8 hPa | - | - | - | - |
| 1777484027 | 11.11° C | 96% | 963.9 hPa | - | - | - | - |
| 1777483423 | 11.11° C | 96% | 964 hPa | - | - | - | - |
| 1777482821 | 11.67° C | 96% | 963.9 hPa | - | - | - | - |
| 1777482217 | 11.11° C | 97% | 963.8 hPa | - | - | - | - |
| 1777481614 | 11.11° C | 96% | 964.2 hPa | - | - | - | - |
| 1777481011 | 11.11° C | 95% | 964.5 hPa | - | - | - | - |
| 1777480408 | 11.11° C | 95% | 964.7 hPa | - | - | - | - |
| 1777479805 | 11.67° C | 95% | 965 hPa | - | - | - | - |
| 1777479202 | 12.22° C | 94% | 964.8 hPa | - | - | - | - |
| 1777478598 | 12.22° C | 94% | 964.8 hPa | - | - | - | - |
| 1777477995 | 12.22° C | 95% | 964.7 hPa | - | - | - | - |
* Rain since midnight (hover to see other rain measurements)
** Current wind speed in m/s (hover to see current wind gust speed)